N2KC KSAN-KSEA

Flight info

Callsign N2KC
Flight time 2h 22m
Altitude 43000
Route PADRZ2 IKAYE DCT TESEA DCT SCTRR DCT SNS DCT RBL DCT LMT HAWKZ8
Aircraft C750/M-SBDE3FGHRWXY/S

Departure

Time 2026-04-26 15:32
Airport San Diego International Airport (KSAN)

Arrival

Time 2026-04-26 17:55
Airport Seattle–Tacoma International Airport (KSEA)
Time Latitude Longitude Altitude Speed Heading
2026-04-26 15:23 32.73344 -117.17873 29 ft 0 kts 185°
2026-04-26 15:29 32.73342 -117.17873 26 ft 1 kts 186°
2026-04-26 15:29 32.73354 -117.17924 28 ft 7 kts 273°
2026-04-26 15:30 32.73252 -117.17982 23 ft 12 kts 175°
2026-04-26 15:30 32.73214 -117.17905 22 ft 12 kts 105°
2026-04-26 15:30 32.73188 -117.17800 24 ft 14 kts 106°
2026-04-26 15:31 32.73163 -117.17698 25 ft 12 kts 107°
2026-04-26 15:31 32.73059 -117.17688 24 ft 4 kts 219°
2026-04-26 15:31 32.73056 -117.17730 23 ft 9 kts 282°
2026-04-26 15:32 32.73347 -117.18905 158 ft 141 kts 285°
2026-04-26 15:32 32.73818 -117.20385 1243 ft 151 kts 298°
2026-04-26 15:32 32.74407 -117.21426 2138 ft 152 kts 299°
2026-04-26 15:33 32.74969 -117.22496 3054 ft 153 kts 299°
2026-04-26 15:33 32.75537 -117.23571 3966 ft 154 kts 300°
2026-04-26 15:33 32.76110 -117.24649 4914 ft 154 kts 299°
2026-04-26 15:33 32.76683 -117.25726 5878 ft 154 kts 299°
2026-04-26 15:34 32.77257 -117.26807 6785 ft 157 kts 298°
2026-04-26 15:34 32.77891 -117.28011 7233 ft 192 kts 299°
2026-04-26 15:34 32.78708 -117.29561 7193 ft 249 kts 300°
2026-04-26 15:34 32.79730 -117.31471 7141 ft 289 kts 301°
2026-04-26 15:35 32.80899 -117.33290 7131 ft 271 kts 306°
2026-04-26 15:35 32.82021 -117.35007 7537 ft 257 kts 305°
2026-04-26 15:35 32.83052 -117.36631 9056 ft 233 kts 304°
2026-04-26 15:35 32.84015 -117.38123 10368 ft 228 kts 304°
2026-04-26 15:36 32.84997 -117.39647 11178 ft 233 kts 304°
2026-04-26 15:36 32.85980 -117.41169 12155 ft 232 kts 303°
2026-04-26 15:36 32.86960 -117.42692 13100 ft 233 kts 302°
2026-04-26 15:36 32.87946 -117.44222 14023 ft 233 kts 302°
2026-04-26 15:37 32.88940 -117.45769 14787 ft 238 kts 301°
2026-04-26 15:37 32.89992 -117.47417 14980 ft 266 kts 301°
2026-04-26 15:37 32.91184 -117.49281 14982 ft 298 kts 302°
2026-04-26 15:37 32.92508 -117.51332 14980 ft 326 kts 303°
2026-04-26 15:38 32.93941 -117.53554 14977 ft 350 kts 303°
2026-04-26 15:38 32.95466 -117.55930 14975 ft 370 kts 303°
2026-04-26 15:38 32.97065 -117.58424 14978 ft 388 kts 303°
2026-04-26 15:38 32.98733 -117.61025 15061 ft 399 kts 303°
2026-04-26 15:39 33.00355 -117.63541 16182 ft 374 kts 303°
2026-04-26 15:39 33.01880 -117.65911 17599 ft 346 kts 302°
2026-04-26 15:39 33.03313 -117.68164 18538 ft 342 kts 302°
2026-04-26 15:39 33.04287 -117.69704 18970 ft 346 kts 302°
2026-04-26 15:40 33.06274 -117.72703 19899 ft 353 kts 306°
2026-04-26 15:40 33.08096 -117.74712 20621 ft 361 kts 313°
2026-04-26 15:40 33.10030 -117.76647 21334 ft 364 kts 312°
2026-04-26 15:40 33.11962 -117.78623 22044 ft 367 kts 312°
2026-04-26 15:41 33.13908 -117.80620 22747 ft 371 kts 311°
2026-04-26 15:41 33.15884 -117.82628 23439 ft 375 kts 312°
2026-04-26 15:41 33.17881 -117.84654 24042 ft 378 kts 311°
2026-04-26 15:41 33.19853 -117.86728 24646 ft 377 kts 308°
2026-04-26 15:42 33.21699 -117.88961 25184 ft 380 kts 307°
2026-04-26 15:42 33.23573 -117.91197 25811 ft 382 kts 307°
2026-04-26 15:42 33.25470 -117.93432 26408 ft 384 kts 307°
2026-04-26 15:42 33.27373 -117.95697 27011 ft 386 kts 306°
2026-04-26 15:43 33.29269 -117.97973 27613 ft 388 kts 306°
2026-04-26 15:43 33.31190 -118.00271 28215 ft 391 kts 306°
2026-04-26 15:43 33.35064 -118.04895 29479 ft 396 kts 305°
2026-04-26 15:44 33.37024 -118.07244 30122 ft 399 kts 305°
2026-04-26 15:44 33.41012 -118.12026 30966 ft 411 kts 306°
2026-04-26 15:44 33.43039 -118.14449 31497 ft 413 kts 306°
2026-04-26 15:45 33.47132 -118.19368 32455 ft 420 kts 305°
2026-04-26 15:45 33.49206 -118.21860 32928 ft 423 kts 305°
2026-04-26 15:46 33.53368 -118.26866 33837 ft 430 kts 305°
2026-04-26 15:46 33.55486 -118.29419 34201 ft 434 kts 305°
2026-04-26 15:46 33.57649 -118.32034 34283 ft 445 kts 306°
2026-04-26 15:46 33.58385 -118.32923 34352 ft 448 kts 306°
2026-04-26 15:47 33.62065 -118.37350 34909 ft 453 kts 307°
2026-04-26 15:47 33.66536 -118.42759 35544 ft 460 kts 307°
2026-04-26 15:47 33.68803 -118.45505 35894 ft 463 kts 307°
2026-04-26 15:48 33.71087 -118.48267 36213 ft 467 kts 307°
2026-04-26 15:48 33.73348 -118.51005 36500 ft 470 kts 307°
2026-04-26 15:48 33.75660 -118.53812 36708 ft 476 kts 307°
2026-04-26 15:48 33.77999 -118.56652 37005 ft 479 kts 307°
2026-04-26 15:49 33.80348 -118.59503 37300 ft 482 kts 307°
2026-04-26 15:49 33.82713 -118.62378 37576 ft 485 kts 307°
2026-04-26 15:49 33.85090 -118.65272 37855 ft 488 kts 307°
2026-04-26 15:49 33.87490 -118.68197 37956 ft 494 kts 307°
2026-04-26 15:50 33.89914 -118.71151 37949 ft 490 kts 307°
2026-04-26 15:50 33.94712 -118.77003 37949 ft 491 kts 307°
2026-04-26 15:51 33.98713 -118.81903 37947 ft 495 kts 307°
2026-04-26 15:51 34.03555 -118.87821 37939 ft 497 kts 307°
2026-04-26 15:52 34.09206 -118.94759 37990 ft 500 kts 308°
2026-04-26 15:52 34.13310 -118.99802 37953 ft 503 kts 308°
2026-04-26 15:53 34.18263 -119.05772 37960 ft 502 kts 309°
2026-04-26 15:53 34.23202 -119.11585 37950 ft 495 kts 308°
2026-04-26 15:54 34.28061 -119.17440 37955 ft 491 kts 309°
2026-04-26 15:54 34.32916 -119.23207 37951 ft 487 kts 309°
2026-04-26 15:55 34.37707 -119.28971 37934 ft 485 kts 309°
2026-04-26 15:55 34.42513 -119.34730 37967 ft 491 kts 309°
2026-04-26 15:56 34.47390 -119.40595 37976 ft 497 kts 309°
2026-04-26 15:56 34.52318 -119.46529 37976 ft 502 kts 309°
2026-04-26 15:57 34.57296 -119.52531 37975 ft 506 kts 309°
2026-04-26 15:57 34.62301 -119.58579 37975 ft 508 kts 309°
2026-04-26 15:58 34.67274 -119.64594 37977 ft 507 kts 309°
2026-04-26 15:58 34.72296 -119.70687 37974 ft 506 kts 309°
2026-04-26 15:59 34.77242 -119.76696 37992 ft 504 kts 309°
2026-04-26 15:59 34.82203 -119.82735 37987 ft 504 kts 309°
2026-04-26 16:00 34.87162 -119.88781 37998 ft 504 kts 309°
2026-04-26 16:00 34.92114 -119.94832 37996 ft 504 kts 309°
2026-04-26 16:01 34.97035 -120.00852 38004 ft 504 kts 310°
2026-04-26 16:01 35.01979 -120.06914 38016 ft 504 kts 310°
2026-04-26 16:02 35.06918 -120.12979 37994 ft 504 kts 310°
2026-04-26 16:02 35.11855 -120.19055 38025 ft 503 kts 310°
2026-04-26 16:03 35.16806 -120.25105 38000 ft 504 kts 312°
2026-04-26 16:03 35.22406 -120.30375 38007 ft 509 kts 319°
2026-04-26 16:04 35.28062 -120.35581 38022 ft 508 kts 318°
2026-04-26 16:04 35.33695 -120.40729 38008 ft 508 kts 319°
2026-04-26 16:05 35.39342 -120.45918 38008 ft 508 kts 318°
2026-04-26 16:05 35.45002 -120.51124 38006 ft 508 kts 319°
2026-04-26 16:06 35.50659 -120.56335 38029 ft 508 kts 319°
2026-04-26 16:06 35.56384 -120.61450 38033 ft 508 kts 320°
2026-04-26 16:07 35.62080 -120.66511 38037 ft 508 kts 320°
2026-04-26 16:07 35.67824 -120.71583 38037 ft 508 kts 320°
2026-04-26 16:08 35.73563 -120.76680 38035 ft 508 kts 320°
2026-04-26 16:08 35.79302 -120.81777 38031 ft 508 kts 320°
2026-04-26 16:09 35.85035 -120.86880 38016 ft 508 kts 320°
2026-04-26 16:09 35.90767 -120.91993 38005 ft 508 kts 320°
2026-04-26 16:10 35.96462 -120.97079 38001 ft 508 kts 320°
2026-04-26 16:10 36.02193 -121.02210 38007 ft 508 kts 320°
2026-04-26 16:11 36.07918 -121.07342 38006 ft 508 kts 320°
2026-04-26 16:11 36.13653 -121.12495 38012 ft 508 kts 320°
2026-04-26 16:12 36.19368 -121.17638 38005 ft 508 kts 320°
2026-04-26 16:12 36.27936 -121.25366 38004 ft 507 kts 320°
2026-04-26 16:13 36.33606 -121.30493 37997 ft 507 kts 320°
2026-04-26 16:13 36.39308 -121.35658 38000 ft 507 kts 320°
2026-04-26 16:14 36.45015 -121.40838 38002 ft 507 kts 320°
2026-04-26 16:15 36.53575 -121.48624 38004 ft 508 kts 320°
2026-04-26 16:15 36.59274 -121.53820 37988 ft 508 kts 320°
2026-04-26 16:16 36.68509 -121.60258 37977 ft 520 kts 338°
2026-04-26 16:16 36.75674 -121.61955 37996 ft 526 kts 348°
2026-04-26 16:17 36.82922 -121.63228 38004 ft 526 kts 347°
2026-04-26 16:17 36.90180 -121.64519 38004 ft 527 kts 348°
2026-04-26 16:18 37.01073 -121.66447 38005 ft 526 kts 347°
2026-04-26 16:19 37.11928 -121.68369 37995 ft 526 kts 348°
2026-04-26 16:20 37.22818 -121.70312 37980 ft 526 kts 348°
2026-04-26 16:20 37.33666 -121.72252 37992 ft 526 kts 348°
2026-04-26 16:21 37.40929 -121.73552 37992 ft 526 kts 348°
2026-04-26 16:21 37.48176 -121.74853 37985 ft 526 kts 348°
2026-04-26 16:22 37.55418 -121.76156 37965 ft 525 kts 348°
2026-04-26 16:22 37.62658 -121.77460 37993 ft 525 kts 348°
2026-04-26 16:23 37.69854 -121.78759 37966 ft 525 kts 348°
2026-04-26 16:23 37.77090 -121.80068 37951 ft 525 kts 348°
2026-04-26 16:24 37.84316 -121.81378 37965 ft 524 kts 348°
2026-04-26 16:24 37.91532 -121.82689 37958 ft 524 kts 348°
2026-04-26 16:25 37.98756 -121.84003 37943 ft 523 kts 348°
2026-04-26 16:25 38.05962 -121.85317 37947 ft 523 kts 348°
2026-04-26 16:26 38.11954 -121.86412 37952 ft 522 kts 348°
2026-04-26 16:26 38.20353 -121.87949 37926 ft 521 kts 348°
2026-04-26 16:27 38.27482 -121.89257 37925 ft 521 kts 348°
2026-04-26 16:27 38.34661 -121.90577 37954 ft 520 kts 348°
2026-04-26 16:28 38.41828 -121.91896 37956 ft 520 kts 348°
2026-04-26 16:28 38.48999 -121.93220 37953 ft 520 kts 348°
2026-04-26 16:29 38.56154 -121.94543 37946 ft 519 kts 348°
2026-04-26 16:29 38.63312 -121.95869 37942 ft 519 kts 348°
2026-04-26 16:30 38.70462 -121.97196 37935 ft 519 kts 348°
2026-04-26 16:30 38.77610 -121.98526 37935 ft 519 kts 348°
2026-04-26 16:31 38.84709 -121.99850 37923 ft 518 kts 348°
2026-04-26 16:31 38.91856 -122.01184 37921 ft 518 kts 348°
2026-04-26 16:32 38.97784 -122.02294 37920 ft 518 kts 348°
2026-04-26 16:32 39.06129 -122.03858 37921 ft 518 kts 348°
2026-04-26 16:33 39.13267 -122.05200 37919 ft 518 kts 348°
2026-04-26 16:33 39.20395 -122.06542 37922 ft 517 kts 348°
2026-04-26 16:34 39.27477 -122.07878 37902 ft 517 kts 348°
2026-04-26 16:34 39.34592 -122.09224 37921 ft 517 kts 348°
2026-04-26 16:35 39.41708 -122.10572 37924 ft 516 kts 348°
2026-04-26 16:35 39.48826 -122.11924 37922 ft 516 kts 348°
2026-04-26 16:36 39.55945 -122.13278 37919 ft 516 kts 348°
2026-04-26 16:36 39.63053 -122.14634 37918 ft 517 kts 348°
2026-04-26 16:37 39.70119 -122.15983 37916 ft 517 kts 348°
2026-04-26 16:37 39.76084 -122.17125 37915 ft 516 kts 348°
2026-04-26 16:38 39.83153 -122.18480 37915 ft 516 kts 348°
2026-04-26 16:38 39.90256 -122.19846 37906 ft 516 kts 349°
2026-04-26 16:39 39.97379 -122.21218 37903 ft 516 kts 348°
2026-04-26 16:39 40.04497 -122.22591 37906 ft 517 kts 348°
2026-04-26 16:40 40.11694 -122.23147 37922 ft 523 kts
2026-04-26 16:40 40.18850 -122.21489 37938 ft 526 kts
2026-04-26 16:41 40.26044 -122.19731 37938 ft 525 kts
2026-04-26 16:41 40.33239 -122.18038 37930 ft 526 kts
2026-04-26 16:42 40.40444 -122.16247 37915 ft 526 kts
2026-04-26 16:42 40.47673 -122.14537 37923 ft 526 kts
2026-04-26 16:43 40.54873 -122.12752 37920 ft 526 kts
2026-04-26 16:43 40.62035 -122.11035 37923 ft 526 kts
2026-04-26 16:44 40.69240 -122.09258 37907 ft 526 kts
2026-04-26 16:44 40.76450 -122.07507 37913 ft 526 kts
2026-04-26 16:45 40.83642 -122.05736 37902 ft 526 kts
2026-04-26 16:45 40.90834 -122.03973 37906 ft 525 kts
2026-04-26 16:46 40.97975 -122.02213 37891 ft 525 kts
2026-04-26 16:46 41.05208 -122.00429 37901 ft 525 kts
2026-04-26 16:47 41.12348 -121.98663 37895 ft 525 kts
2026-04-26 16:47 41.19529 -121.96883 37882 ft 525 kts
2026-04-26 16:48 41.26717 -121.95098 37879 ft 525 kts
2026-04-26 16:48 41.33845 -121.93323 37872 ft 524 kts
2026-04-26 16:49 41.41022 -121.91532 37848 ft 524 kts
2026-04-26 16:49 41.48180 -121.89742 37847 ft 524 kts
2026-04-26 16:50 41.55381 -121.87937 37846 ft 524 kts
2026-04-26 16:50 41.62547 -121.86137 37836 ft 524 kts
2026-04-26 16:51 41.69714 -121.84332 37842 ft 523 kts
2026-04-26 16:51 41.76828 -121.82537 37837 ft 523 kts
2026-04-26 16:52 41.82823 -121.81021 37825 ft 522 kts
2026-04-26 16:52 41.91126 -121.78916 37842 ft 522 kts
2026-04-26 16:53 41.98257 -121.77104 37850 ft 521 kts
2026-04-26 16:53 42.05395 -121.75287 37862 ft 521 kts
2026-04-26 16:54 42.12482 -121.73518 37855 ft 520 kts
2026-04-26 16:54 42.19656 -121.73558 37807 ft 515 kts 351°
2026-04-26 16:55 42.26683 -121.75416 37826 ft 514 kts 347°
2026-04-26 16:55 42.33763 -121.76893 37818 ft 515 kts 351°
2026-04-26 16:56 42.44349 -121.79399 37822 ft 514 kts 349°
2026-04-26 16:57 42.51418 -121.80931 37821 ft 514 kts 349°
2026-04-26 16:57 42.62004 -121.83399 37826 ft 514 kts 349°
2026-04-26 16:58 42.67873 -121.84729 37830 ft 514 kts 349°
2026-04-26 16:59 42.79599 -121.87440 37844 ft 514 kts 349°
2026-04-26 17:00 42.93687 -121.90704 37850 ft 513 kts 349°
2026-04-26 17:00 43.04256 -121.93162 37856 ft 513 kts 349°
2026-04-26 17:01 43.11286 -121.94798 37862 ft 512 kts 349°
2026-04-26 17:01 43.14809 -121.95622 37663 ft 516 kts 349°
2026-04-26 17:01 43.18378 -121.96457 37193 ft 521 kts 349°
2026-04-26 17:02 43.21840 -121.97265 36725 ft 502 kts 349°
2026-04-26 17:02 43.25232 -121.98057 36265 ft 488 kts 349°
2026-04-26 17:02 43.28538 -121.98835 35810 ft 475 kts 349°
2026-04-26 17:02 43.31756 -121.99593 35364 ft 464 kts 350°
2026-04-26 17:03 43.34906 -122.00332 34929 ft 453 kts 350°
2026-04-26 17:03 43.37987 -122.01056 34499 ft 445 kts 350°
2026-04-26 17:03 43.41030 -122.01773 34081 ft 443 kts 350°
2026-04-26 17:03 43.44062 -122.02489 33642 ft 440 kts 350°
2026-04-26 17:04 43.47076 -122.03199 33147 ft 438 kts 350°
2026-04-26 17:04 43.50068 -122.03906 32648 ft 434 kts 350°
2026-04-26 17:04 43.53045 -122.04611 32180 ft 436 kts 350°
2026-04-26 17:04 43.56056 -122.05323 31717 ft 442 kts 350°
2026-04-26 17:05 43.59106 -122.06044 31266 ft 447 kts 350°
2026-04-26 17:05 43.62190 -122.06776 30819 ft 451 kts 350°
2026-04-26 17:05 43.65296 -122.07516 30378 ft 453 kts 350°
2026-04-26 17:05 43.68409 -122.08256 29947 ft 454 kts 350°
2026-04-26 17:06 43.71522 -122.08997 29428 ft 454 kts 350°
2026-04-26 17:06 43.74627 -122.09737 28923 ft 452 kts 350°
2026-04-26 17:06 43.77727 -122.10477 28417 ft 451 kts 350°
2026-04-26 17:06 43.80811 -122.11213 27925 ft 449 kts 350°
2026-04-26 17:07 43.83843 -122.11937 27447 ft 447 kts 350°
2026-04-26 17:07 43.86911 -122.12671 26978 ft 445 kts 350°
2026-04-26 17:07 43.89959 -122.13401 26508 ft 443 kts 350°
2026-04-26 17:07 43.92995 -122.14130 26047 ft 441 kts 350°
2026-04-26 17:08 43.96017 -122.14856 25583 ft 438 kts 350°
2026-04-26 17:08 43.99012 -122.15575 25135 ft 435 kts 350°
2026-04-26 17:08 44.01981 -122.16289 24868 ft 428 kts 350°
2026-04-26 17:08 44.04875 -122.16986 24867 ft 415 kts 350°
2026-04-26 17:09 44.07681 -122.17662 24868 ft 405 kts 350°
2026-04-26 17:09 44.09514 -122.18103 24863 ft 398 kts 350°
2026-04-26 17:09 44.13121 -122.18974 24860 ft 388 kts 350°
2026-04-26 17:09 44.15756 -122.19613 24856 ft 382 kts 350°
2026-04-26 17:10 44.18325 -122.20232 24857 ft 376 kts 350°
2026-04-26 17:10 44.20887 -122.20851 24858 ft 372 kts 350°
2026-04-26 17:10 44.23432 -122.21468 24859 ft 370 kts 350°
2026-04-26 17:10 44.25964 -122.22081 24860 ft 368 kts 350°
2026-04-26 17:11 44.28483 -122.22692 24863 ft 367 kts 350°
2026-04-26 17:11 44.31004 -122.23304 24868 ft 368 kts 350°
2026-04-26 17:11 44.33534 -122.23920 24868 ft 368 kts 350°
2026-04-26 17:11 44.36067 -122.24539 24871 ft 376 kts 350°
2026-04-26 17:12 44.41487 -122.25862 24877 ft 418 kts 350°
2026-04-26 17:12 44.44416 -122.26575 24873 ft 436 kts 350°
2026-04-26 17:13 44.50650 -122.28100 24872 ft 466 kts 350°
2026-04-26 17:13 44.53886 -122.28891 24870 ft 478 kts 350°
2026-04-26 17:13 44.60097 -122.30413 24853 ft 433 kts 350°
2026-04-26 17:14 44.62993 -122.31127 24855 ft 413 kts 350°
2026-04-26 17:14 44.68431 -122.32463 24855 ft 382 kts 350°
2026-04-26 17:14 44.71010 -122.33097 24858 ft 370 kts 350°
2026-04-26 17:15 44.75955 -122.34319 24862 ft 352 kts 350°
2026-04-26 17:15 44.78339 -122.34908 24862 ft 345 kts 350°
2026-04-26 17:15 44.80682 -122.35487 24870 ft 339 kts 350°
2026-04-26 17:16 44.82986 -122.36057 24867 ft 334 kts 350°
2026-04-26 17:16 44.83754 -122.36247 24861 ft 333 kts 350°
2026-04-26 17:16 44.85108 -122.36581 24870 ft 342 kts 350°
2026-04-26 17:16 44.87518 -122.37179 24880 ft 361 kts 350°
2026-04-26 17:17 44.90057 -122.37810 24894 ft 379 kts 350°
2026-04-26 17:17 44.92711 -122.38468 24885 ft 396 kts 350°
2026-04-26 17:17 44.95474 -122.39154 24889 ft 410 kts 350°
2026-04-26 17:17 44.98326 -122.39863 24897 ft 422 kts 350°
2026-04-26 17:18 45.01260 -122.40595 24893 ft 433 kts 350°
2026-04-26 17:18 45.04262 -122.41344 24900 ft 443 kts 350°
2026-04-26 17:18 45.07247 -122.42087 24905 ft 451 kts 350°
2026-04-26 17:18 45.10378 -122.42869 24912 ft 459 kts 350°
2026-04-26 17:19 45.16464 -122.44390 24914 ft 457 kts 350°
2026-04-26 17:19 45.19574 -122.45168 24912 ft 449 kts 350°
2026-04-26 17:19 45.22627 -122.45935 24912 ft 444 kts 350°
2026-04-26 17:20 45.25667 -122.46699 24911 ft 443 kts 350°
2026-04-26 17:20 45.26655 -122.46947 24907 ft 443 kts 350°
2026-04-26 17:20 45.31748 -122.48226 24910 ft 444 kts 350°
2026-04-26 17:20 45.34793 -122.48994 24904 ft 446 kts 350°
2026-04-26 17:21 45.37850 -122.49765 24905 ft 446 kts 350°
2026-04-26 17:21 45.40909 -122.50537 24908 ft 447 kts 350°
2026-04-26 17:21 45.43974 -122.51312 24909 ft 448 kts 350°
2026-04-26 17:21 45.45011 -122.51574 24911 ft 448 kts 350°
2026-04-26 17:22 45.48739 -122.52518 24913 ft 449 kts 350°
2026-04-26 17:22 45.51804 -122.53295 24913 ft 444 kts 350°
2026-04-26 17:23 45.54802 -122.54058 24791 ft 435 kts 350°
2026-04-26 17:23 45.56785 -122.54561 24444 ft 437 kts 351°
2026-04-26 17:23 45.59779 -122.55317 23995 ft 438 kts 351°
2026-04-26 17:23 45.62751 -122.56077 23919 ft 427 kts 350°
2026-04-26 17:24 45.65634 -122.56820 23913 ft 416 kts 350°
2026-04-26 17:24 45.68449 -122.57536 23927 ft 406 kts 351°
2026-04-26 17:24 45.71196 -122.58233 23899 ft 397 kts 351°
2026-04-26 17:24 45.73898 -122.58924 23893 ft 391 kts 351°
2026-04-26 17:25 45.76557 -122.59601 23893 ft 386 kts 351°
2026-04-26 17:25 45.79189 -122.60243 23894 ft 382 kts 351°
2026-04-26 17:25 45.81797 -122.60873 23891 ft 379 kts 351°
2026-04-26 17:25 45.84389 -122.61515 23893 ft 378 kts 351°
2026-04-26 17:26 45.86977 -122.62162 23891 ft 377 kts 351°
2026-04-26 17:26 45.89562 -122.62802 23893 ft 377 kts 351°
2026-04-26 17:26 45.92148 -122.63441 23892 ft 377 kts 351°
2026-04-26 17:26 45.94736 -122.64083 23891 ft 378 kts 351°
2026-04-26 17:27 45.97333 -122.64729 23894 ft 379 kts 351°
2026-04-26 17:27 45.99898 -122.65368 23886 ft 379 kts 352°
2026-04-26 17:27 46.02486 -122.66011 23892 ft 377 kts 352°
2026-04-26 17:27 46.05069 -122.66649 23892 ft 375 kts 352°
2026-04-26 17:28 46.07633 -122.67288 23912 ft 373 kts 352°
2026-04-26 17:28 46.10196 -122.67890 23893 ft 373 kts 353°
2026-04-26 17:28 46.12787 -122.68372 23715 ft 380 kts 353°
2026-04-26 17:28 46.15444 -122.68921 23240 ft 394 kts 353°
2026-04-26 17:29 46.18200 -122.69491 22709 ft 405 kts 353°
2026-04-26 17:29 46.20097 -122.69862 22360 ft 411 kts 353°
2026-04-26 17:29 46.23897 -122.70602 21679 ft 421 kts 353°
2026-04-26 17:29 46.26819 -122.71181 21184 ft 425 kts 353°
2026-04-26 17:30 46.29758 -122.71764 20700 ft 428 kts 353°
2026-04-26 17:30 46.32710 -122.72262 20217 ft 426 kts 357°
2026-04-26 17:30 46.35664 -122.72373 19727 ft 424 kts 359°
2026-04-26 17:30 46.38603 -122.72430 19257 ft 421 kts 359°
2026-04-26 17:31 46.41527 -122.72533 18788 ft 419 kts 359°
2026-04-26 17:31 46.44433 -122.72666 18325 ft 416 kts 358°
2026-04-26 17:31 46.47309 -122.72775 17826 ft 413 kts 359°
2026-04-26 17:31 46.50168 -122.72861 17311 ft 410 kts 359°
2026-04-26 17:32 46.53011 -122.72959 16809 ft 407 kts 359°
2026-04-26 17:32 46.55834 -122.73070 16303 ft 405 kts 359°
2026-04-26 17:32 46.58640 -122.73174 15809 ft 403 kts 359°
2026-04-26 17:32 46.61436 -122.73271 15323 ft 401 kts 359°
2026-04-26 17:33 46.64218 -122.73368 14843 ft 399 kts 359°
2026-04-26 17:33 46.66984 -122.73471 14371 ft 397 kts 359°
2026-04-26 17:33 46.69738 -122.73573 13904 ft 395 kts 359°
2026-04-26 17:34 46.75203 -122.73762 12887 ft 390 kts
2026-04-26 17:34 46.77865 -122.73250 12303 ft 387 kts 16°
2026-04-26 17:34 46.80244 -122.71680 11764 ft 375 kts 31°
2026-04-26 17:34 46.82305 -122.69370 11260 ft 364 kts 39°
2026-04-26 17:35 46.84243 -122.67051 10782 ft 356 kts 38°
2026-04-26 17:35 46.86208 -122.64904 10313 ft 351 kts 36°
2026-04-26 17:35 46.88115 -122.62705 9899 ft 347 kts 38°
2026-04-26 17:35 46.89942 -122.60543 9885 ft 329 kts 38°
2026-04-26 17:36 46.91711 -122.58532 9879 ft 316 kts 37°
2026-04-26 17:36 46.93193 -122.56897 9874 ft 307 kts 35°
2026-04-26 17:36 46.95087 -122.55616 9869 ft 297 kts 16°
2026-04-26 17:36 46.97061 -122.54795 9879 ft 293 kts 15°
2026-04-26 17:37 46.99000 -122.53949 9878 ft 289 kts 16°
2026-04-26 17:37 47.00923 -122.53093 9881 ft 287 kts 16°
2026-04-26 17:37 47.02893 -122.52234 9892 ft 314 kts 16°
2026-04-26 17:38 47.07493 -122.50241 9886 ft 355 kts 15°
2026-04-26 17:38 47.09914 -122.49640 9875 ft 352 kts
2026-04-26 17:38 47.12347 -122.49242 9898 ft 352 kts
2026-04-26 17:38 47.14776 -122.48819 9899 ft 351 kts
2026-04-26 17:39 47.17195 -122.48354 9902 ft 351 kts
2026-04-26 17:39 47.19617 -122.47938 9899 ft 349 kts
2026-04-26 17:39 47.22034 -122.47637 9895 ft 349 kts
2026-04-26 17:39 47.24447 -122.47203 9903 ft 349 kts
2026-04-26 17:40 47.26861 -122.46787 9903 ft 349 kts
2026-04-26 17:40 47.28460 -122.46557 9894 ft 349 kts
2026-04-26 17:40 47.31709 -122.46097 9800 ft 351 kts
2026-04-26 17:40 47.34134 -122.45715 9801 ft 350 kts
2026-04-26 17:41 47.36551 -122.45521 9806 ft 347 kts 359°
2026-04-26 17:41 47.38972 -122.45560 9813 ft 348 kts 359°
2026-04-26 17:41 47.41389 -122.45557 9823 ft 348 kts 360°
2026-04-26 17:41 47.43811 -122.45535 9824 ft 347 kts 360°
2026-04-26 17:42 47.46226 -122.45527 9822 ft 347 kts 359°
2026-04-26 17:42 47.48638 -122.45545 9818 ft 347 kts 359°
2026-04-26 17:42 47.51056 -122.45560 9801 ft 347 kts 359°
2026-04-26 17:42 47.53471 -122.45562 9802 ft 347 kts 359°
2026-04-26 17:43 47.55890 -122.45582 9806 ft 347 kts 359°
2026-04-26 17:43 47.58305 -122.45607 9806 ft 347 kts 359°
2026-04-26 17:43 47.60719 -122.45635 9806 ft 347 kts 359°
2026-04-26 17:43 47.63129 -122.45661 9805 ft 343 kts 359°
2026-04-26 17:44 47.65491 -122.45685 9799 ft 337 kts 359°
2026-04-26 17:44 47.67818 -122.45708 9799 ft 332 kts 359°
2026-04-26 17:44 47.70112 -122.45730 9796 ft 328 kts 359°
2026-04-26 17:44 47.72390 -122.45751 9798 ft 326 kts 359°
2026-04-26 17:45 47.74647 -122.45772 9795 ft 324 kts 358°
2026-04-26 17:45 47.76896 -122.45780 9800 ft 323 kts 359°
2026-04-26 17:45 47.79140 -122.45781 9783 ft 322 kts 359°
2026-04-26 17:45 47.81350 -122.45423 9737 ft 323 kts 15°
2026-04-26 17:46 47.83245 -122.43639 9522 ft 327 kts 41°
2026-04-26 17:46 47.84394 -122.40736 8961 ft 330 kts 70°
2026-04-26 17:46 47.84653 -122.37372 8455 ft 329 kts 92°
2026-04-26 17:46 47.83944 -122.34151 7950 ft 330 kts 118°
2026-04-26 17:47 47.82407 -122.31741 7450 ft 314 kts 145°
2026-04-26 17:47 47.81139 -122.30834 7129 ft 300 kts 161°
2026-04-26 17:47 47.78525 -122.30488 6867 ft 266 kts 186°
2026-04-26 17:47 47.76813 -122.31016 6870 ft 239 kts 187°
2026-04-26 17:48 47.75243 -122.30693 6898 ft 216 kts 167°
2026-04-26 17:48 47.73799 -122.30525 6696 ft 211 kts 180°
2026-04-26 17:48 47.72310 -122.30573 6253 ft 218 kts 180°
2026-04-26 17:48 47.70759 -122.30584 5667 ft 227 kts 180°
2026-04-26 17:49 47.69164 -122.30586 5104 ft 232 kts 180°
2026-04-26 17:49 47.67541 -122.30592 4641 ft 232 kts 181°
2026-04-26 17:49 47.65971 -122.30615 4328 ft 218 kts 181°
2026-04-26 17:49 47.64499 -122.30625 4023 ft 206 kts 181°
2026-04-26 17:50 47.63099 -122.30645 3732 ft 196 kts 181°
2026-04-26 17:50 47.61781 -122.30666 3498 ft 179 kts 183°
2026-04-26 17:50 47.60622 -122.30677 3181 ft 155 kts 180°
2026-04-26 17:50 47.59616 -122.30657 2983 ft 136 kts 181°
2026-04-26 17:51 47.58730 -122.30684 2880 ft 120 kts 182°
2026-04-26 17:51 47.57865 -122.30688 2726 ft 129 kts 181°
2026-04-26 17:51 47.56951 -122.30691 2551 ft 131 kts 180°
2026-04-26 17:51 47.56043 -122.30693 2410 ft 131 kts 181°
2026-04-26 17:52 47.55115 -122.30709 2204 ft 135 kts 181°
2026-04-26 17:52 47.54255 -122.30709 2037 ft 134 kts 181°
2026-04-26 17:52 47.53338 -122.30708 1900 ft 134 kts 181°
2026-04-26 17:52 47.52411 -122.30708 1710 ft 134 kts 181°
2026-04-26 17:53 47.51470 -122.30713 1464 ft 136 kts 181°
2026-04-26 17:53 47.50528 -122.30733 1254 ft 134 kts 182°
2026-04-26 17:53 47.49614 -122.30752 1111 ft 129 kts 182°
2026-04-26 17:54 47.47823 -122.30769 719 ft 128 kts 180°
2026-04-26 17:54 47.46938 -122.30773 519 ft 126 kts 181°
2026-04-26 17:54 47.46099 -122.30782 402 ft 110 kts 180°
2026-04-26 17:54 47.45412 -122.30786 392 ft 89 kts 180°
2026-04-26 17:55 47.44843 -122.30793 390 ft 71 kts 180°
2026-04-26 17:55 47.44610 -122.30789 390 ft 12 kts 141°
2026-04-26 17:55 47.44589 -122.30681 390 ft 8 kts 90°
2026-04-26 17:55 47.44589 -122.30673 390 ft 0 kts 88°
2026-04-26 17:57 47.44590 -122.30669 390 ft 1 kts 87°
2026-04-26 17:57 47.44582 -122.30643 390 ft 5 kts 132°
2026-04-26 17:57 47.44531 -122.30633 390 ft 10 kts 173°
2026-04-26 17:57 47.44438 -122.30630 390 ft 17 kts 180°
2026-04-26 17:58 47.43881 -122.30632 390 ft 36 kts 180°
2026-04-26 17:59 47.43661 -122.30624 390 ft 5 kts 33°
2026-04-26 17:59 47.43766 -122.30638 390 ft 14 kts 354°
2026-04-26 17:59 47.43800 -122.30658 390 ft 0 kts 318°
2026-04-26 18:00 47.43806 -122.30684 390 ft 10 kts 275°
2026-04-26 18:00 47.43807 -122.30857 390 ft 27 kts 271°
2026-04-26 18:00 47.43809 -122.31152 390 ft 29 kts 270°
2026-04-26 18:00 47.43833 -122.31348 390 ft 14 kts 316°
2026-04-26 18:01 47.43907 -122.31435 390 ft 14 kts 314°
2026-04-26 18:01 47.43957 -122.31526 390 ft 7 kts 288°
2026-04-26 18:01 47.43961 -122.31596 390 ft 6 kts 289°
2026-04-26 18:01 47.43985 -122.31609 390 ft 4 kts 358°
2026-04-26 18:02 47.43997 -122.31593 390 ft 0 kts 55°